Home   Weather   Gaziantep   Past weeks

Flag for Turkey Past Weather in Gaziantep, Turkey — Yesterday and Last 2 Weeks

54 °F

Passing clouds.

Feels Like: 53 °F
Forecast: 50 / 76 °F
Wind: 3 mph from Northwest

Location: Gaziantep Airport

Current Time: Oct 24, 2016 at 1:17:38 AM

Latest Report: Oct 24, 2016 at 12:20 AM

Visibility: N/A

Pressure: 30.04 "Hg (27.11 "Hg at 856m altitude)

Humidity: 58%

Dew Point: 39 °F

Location of GaziantepLocation

Past Weather in Gaziantep — Graph


Gaziantep Temperature Yesterday

Maximum temperature yesterday: 77 °F (at 11:50 AM)
Minimum temperature yesterday: 48 °F (at 6:20 AM)
Average temperature yesterday: 63 °F

High & Low Weather Summary for the Past Weeks

High86 °F (Oct 12, 4:20 PM)82% (Oct 9, 6:50 AM)30.12 "Hg (Oct 9, 6:50 AM)
Low39 °F (Oct 17, 5:20 AM)12% (Oct 16, 4:20 PM)29.92 "Hg (Oct 11, 2:20 PM)
Average66 °F44%30.01 "Hg
* Reported Oct 8 11:20 PM — Oct 23 11:50 PM, Gaziantep, Weather by CustomWeather, © 2016

Note: Actual official high and low records may vary slightly from our data, if they occured in-between our weather recording intervals... More about our weather records


Gaziantep Weather History for the Previous 24 Hours

Scroll right to see more
Time TempWeatherWind HumidityBarometerVisibility
11:50 PM
Sun, Oct 23
59 °FPassing clouds.3 mph59%30.04 "HgN/A
10:50 PM57 °FClear.1 mph51%30.04 "Hg10 mi
10:20 PM59 °FClear.1 mph55%30.04 "Hg10 mi
9:50 PM61 °FClear.2 mph52%30.04 "Hg10 mi
9:20 PM63 °FClear.2 mph45%30.04 "Hg10 mi
8:50 PM61 °FClear.2 mph45%30.04 "Hg10 mi
8:20 PM64 °FClear.3 mph40%30.01 "Hg10 mi
7:50 PM66 °FClear.2 mph40%30.01 "Hg10 mi
7:20 PM64 °FClear.5 mph40%30.01 "Hg10 mi
6:50 PM66 °FClear.2 mph37%30.01 "Hg10 mi
6:20 PM68 °FClear.1 mph38%30.01 "Hg10 mi
5:50 PM73 °FClear.2 mph36%30.01 "Hg10 mi
5:20 PM75 °FSunny.1 mph29%30.01 "Hg10 mi
4:50 PM75 °FSunny.2 mph29%30.01 "Hg10 mi
4:20 PM77 °FSunny.2 mph28%30.01 "Hg10 mi
3:50 PM77 °FPassing clouds.5 mph28%30.01 "HgN/A
3:20 PM77 °FSunny.3 mph28%30.01 "Hg10 mi
2:50 PM77 °FSunny.2 mph28%30.01 "Hg10 mi
1:50 PM77 °FPassing clouds.5 mph30%30.04 "HgN/A
1:20 PM77 °FPassing clouds.5 mph30%30.04 "HgN/A
12:50 PM77 °FSunny.2 mph28%30.04 "Hg10 mi
12:20 PM77 °FSunny.2 mph28%30.07 "Hg10 mi
11:50 AM77 °FPassing clouds.3 mph28%30.07 "HgN/A
11:20 AM75 °FSunny.2 mph29%30.07 "Hg10 mi
10:50 AM75 °FPassing clouds.3 mph29%30.07 "HgN/A
10:20 AM73 °FPassing clouds.6 mph31%30.07 "HgN/A
9:50 AM72 °FPassing clouds.3 mph38%30.09 "HgN/A
9:20 AM68 °FSunny.1 mph46%30.09 "Hg10 mi
8:50 AM63 °FSunny.1 mph52%30.09 "Hg10 mi
8:20 AM57 °FSunny.2 mph59%30.09 "Hg10 mi
7:50 AM52 °FSunny.2 mph62%30.07 "Hg10 mi
7:20 AM54 °FSunny.2 mph58%30.07 "Hg10 mi
6:50 AM48 °FSunny.2 mph66%30.07 "Hg10 mi
6:20 AM48 °FClear.2 mph66%30.07 "Hg10 mi
5:50 AM50 °FClear.2 mph67%30.07 "Hg10 mi
5:20 AM50 °FClear.2 mph62%30.07 "Hg10 mi
4:50 AM50 °FClear.No wind62%30.07 "Hg10 mi
4:20 AM50 °FClear.1 mph62%30.07 "Hg10 mi
3:50 AM50 °FClear.No wind62%30.07 "Hg10 mi
3:20 AM50 °FClear.1 mph58%30.07 "Hg10 mi
2:50 AM52 °FClear.1 mph62%30.07 "Hg10 mi
2:20 AM50 °FClear.1 mph62%30.07 "Hg10 mi
1:50 AM50 °FClear.3 mph58%30.07 "Hg10 mi
1:20 AM52 °FClear.1 mph58%30.07 "Hg10 mi
Weather by CustomWeather, © 2016

See weather overviewHow to use our weather pages